Theta_e
350 349 343 334 333 332 325 324 321 326 325 330 340 342 342 342 343 343 342 340 333 326 325 327 333 338 340 340 342 343 343 343 344 345 345 345 345 344 344 343 343 342 343 343 342 342 342 340 338 334 332 331 330 332 334 337 338 337 336 335 334 331 332 333 333 333 333 333 334 335 334 334 334 335 334 333 333 333 334 335 336 335 334 333 334
350 347 343 333 332 332 326 324 322 326 326 329 337 340 341 341 341 340 339 337 332 329 330 336 341 343 343 343 343 343 344 344 344 345 345 345 345 345 344 343 343 342 343 343 342 342 340 336 331 329 328 328 327 324 325 330 334 335 335 335 333 331 332 333 334 333 333 332 333 334 334 334 334 334 333 332 332 333 334 334 334 333 333 333 333
348 346 344 333 332 332 325 323 323 327 327 330 334 336 338 338 338 337 336 333 332 332 335 340 342 343 343 343 343 344 344 345 345 345 345 345 345 345 344 344 344 343 343 343 343 342 339 334 332 332 332 332 331 328 326 327 330 332 333 334 332 329 332 333 332 331 330 331 333 334 334 334 333 333 333 332 331 330 331 331 332 333 332 332 333
347 347 342 332 330 330 324 323 323 326 327 330 332 332 333 333 333 332 331 331 334 335 338 340 341 343 343 343 343 344 344 344 345 345 344 344 344 344 344 344 344 344 343 343 343 342 339 337 336 337 336 335 334 332 330 330 332 332 333 334 330 327 330 332 331 331 332 335 335 336 336 334 332 333 334 334 332 329 330 332 333 334 333 332 332
347 346 342 336 333 328 322 322 322 324 325 327 328 327 327 327 327 328 331 333 337 338 340 341 342 343 343 344 344 344 344 344 344 344 344 344 344 343 344 344 344 343 343 343 342 341 340 339 338 339 339 338 336 334 332 330 331 333 333 332 329 326 329 331 333 334 334 335 336 337 337 334 332 334 335 335 334 332 333 333 334 334 334 333 332
347 345 343 342 339 329 323 323 322 323 323 323 323 323 324 325 327 331 334 336 338 340 341 342 343 343 343 344 344 344 344 344 344 344 344 343 344 343 343 343 343 343 342 343 342 341 340 339 338 339 339 339 338 335 332 331 328 330 332 330 329 330 332 333 334 335 335 336 336 336 336 336 335 334 334 333 332 331 331 331 331 332 333 333 333
347 345 344 345 341 330 325 326 324 323 322 324 326 327 327 326 327 331 334 338 340 341 343 343 343 343 344 343 343 344 344 344 343 343 343 343 343 343 343 343 343 342 342 342 341 341 340 339 340 340 338 336 335 332 331 331 329 328 328 329 332 333 332 333 335 335 336 337 337 334 335 337 336 335 334 332 330 331 331 331 330 330 332 332 333
346 345 344 344 340 330 328 328 328 328 328 333 337 338 337 333 332 334 338 341 343 343 343 343 343 343 344 343 344 344 344 344 343 343 342 342 342 343 343 342 342 342 342 341 341 341 341 340 339 337 333 330 331 331 331 331 331 329 326 328 332 330 329 333 334 335 336 336 334 332 334 337 336 334 333 333 333 333 334 334 333 332 332 332 333
345 345 344 344 339 331 329 331 332 334 337 341 342 343 342 341 340 341 342 342 343 343 343 343 343 343 344 343 344 344 343 343 342 342 341 341 341 341 341 342 342 341 341 341 340 340 339 337 333 331 329 329 330 330 331 331 331 331 327 327 329 327 330 334 334 335 336 334 334 335 336 336 334 332 332 333 333 334 335 335 336 334 333 333 332
345 345 344 344 339 332 329 332 335 338 341 342 343 344 343 343 343 343 343 343 343 343 344 344 344 344 343 343 343 343 342 341 341 339 337 336 336 336 337 339 340 340 341 340 339 338 337 332 329 329 328 329 330 330 330 330 331 331 329 325 323 325 331 334 335 336 334 331 333 335 335 334 334 332 331 334 333 333 335 335 334 333 333 333 332
345 344 344 343 339 332 329 333 337 340 342 342 343 344 343 343 343 343 343 343 344 344 344 344 344 343 343 342 342 341 340 339 337 333 328 327 326 326 328 332 336 337 338 339 339 337 333 329 329 329 327 328 331 331 329 330 330 330 330 325 322 327 333 335 336 336 331 330 330 333 333 335 337 332 330 333 332 331 332 332 331 331 332 332 331
344 345 343 342 339 333 333 336 338 339 341 341 343 343 343 343 343 343 343 343 343 344 343 343 343 342 342 340 339 338 337 336 334 329 324 322 321 320 320 323 330 333 334 336 338 335 331 330 330 328 326 329 332 331 329 330 330 330 329 326 327 332 334 335 336 335 330 330 331 334 335 337 334 328 330 332 331 331 330 330 331 331 331 331 330
346 345 342 341 339 336 336 337 337 339 341 341 342 342 343 343 343 343 343 343 343 344 343 343 342 340 339 337 336 335 335 334 331 327 324 323 322 320 317 318 324 329 329 331 332 331 331 331 330 326 325 330 332 332 330 331 331 331 329 326 330 334 334 335 336 334 330 332 333 335 335 337 331 325 330 332 331 331 330 330 330 329 329 329 328
346 345 343 341 340 338 337 337 337 338 340 342 342 342 343 343 343 343 343 343 343 343 343 342 341 339 338 337 337 336 335 333 330 327 323 323 324 321 316 314 316 320 324 326 326 326 327 329 327 324 325 330 333 333 331 331 332 332 330 329 330 333 333 335 335 331 331 332 333 333 335 337 330 325 330 332 331 330 330 331 330 329 329 328 327
347 345 343 342 341 339 337 337 337 338 340 341 341 343 343 343 342 343 343 343 343 343 342 341 340 339 338 338 337 335 333 332 331 327 323 325 330 330 325 318 314 314 318 321 323 322 320 322 323 324 327 331 333 334 333 332 331 332 332 331 333 334 336 338 336 331 332 333 332 334 336 335 327 325 331 332 331 329 331 331 330 330 329 328 327
346 344 343 342 342 340 338 338 337 338 339 340 341 342 343 342 342 342 343 343 342 342 341 340 340 339 338 337 335 334 332 331 330 326 324 329 333 335 332 325 317 314 315 317 319 319 317 316 321 325 330 332 332 333 333 333 332 332 332 332 334 336 337 338 338 333 334 333 332 334 335 331 322 325 332 332 331 331 331 331 330 330 328 328 327
345 344 344 343 343 341 341 339 336 337 337 339 340 341 342 342 341 342 342 342 342 341 341 340 339 338 337 336 334 333 332 331 328 326 329 333 335 335 334 331 324 318 316 317 317 316 314 315 322 328 331 332 332 333 333 333 333 332 333 332 333 335 336 339 339 334 332 331 331 333 334 330 322 326 332 332 331 332 331 331 330 329 327 327 328
345 344 345 344 344 342 342 339 337 338 337 338 339 340 340 341 341 341 341 341 341 340 340 339 338 338 337 336 335 335 335 333 329 327 331 334 335 334 334 333 330 323 317 318 318 317 317 318 325 329 331 332 332 333 333 333 333 332 333 332 332 335 337 337 338 333 331 332 332 335 335 329 322 326 332 331 330 331 330 330 329 328 328 327 328
345 345 344 344 345 343 343 340 340 340 338 338 338 338 339 340 340 340 341 341 340 339 339 338 337 337 336 336 336 336 336 335 332 328 329 331 333 334 333 333 333 326 318 317 319 320 321 323 328 330 331 332 332 333 333 333 333 333 333 332 332 334 337 337 338 334 334 334 333 336 333 324 318 325 331 330 329 330 330 329 329 329 327 327 327
345 345 344 344 345 344 343 342 342 341 340 339 336 337 338 340 340 340 340 340 339 338 337 336 334 335 335 334 335 336 335 336 336 331 328 329 332 333 331 330 332 328 319 316 319 321 323 325 328 330 330 332 332 332 333 332 332 333 332 332 332 334 337 338 336 333 334 333 332 335 330 320 318 326 332 330 329 329 329 329 329 328 327 328 327
344 344 344 344 345 343 342 342 342 341 340 339 337 337 337 338 340 340 339 338 337 334 333 334 334 334 332 332 335 337 336 337 338 335 332 331 330 329 328 328 329 329 323 318 316 319 323 325 327 329 330 331 332 333 332 332 332 332 332 331 334 337 339 338 335 333 333 332 333 335 330 322 320 324 330 332 330 328 329 330 329 328 328 327 327
343 343 343 343 343 342 341 340 341 341 340 339 337 336 335 337 338 339 340 337 333 332 336 338 338 335 332 334 336 336 336 336 337 335 336 338 332 327 329 328 327 328 328 324 319 317 318 322 325 326 329 329 332 335 335 333 331 331 331 331 335 339 339 337 334 333 332 333 335 335 331 325 323 323 327 332 330 329 330 330 329 329 327 327 327
343 343 342 342 341 341 341 340 340 339 338 338 337 336 335 336 336 338 340 338 335 336 339 339 338 337 335 337 337 338 339 338 337 334 335 337 332 327 327 327 328 328 327 329 327 323 320 319 320 323 326 327 330 336 337 337 336 332 331 333 337 339 337 337 336 334 332 333 334 334 332 328 325 324 326 331 331 331 330 329 329 329 328 328 327
343 342 342 340 340 339 340 339 338 337 337 337 336 336 335 335 335 336 338 339 338 338 338 337 336 337 337 338 340 340 341 339 338 336 335 335 334 332 332 330 332 330 328 333 334 332 329 327 324 320 321 325 331 335 334 337 338 336 336 337 339 338 336 336 335 334 333 333 334 334 332 330 327 324 325 329 332 331 331 330 329 329 328 327 327
342 341 341 339 338 338 338 338 336 335 336 336 335 334 335 335 337 337 338 338 337 337 337 336 336 337 339 340 340 340 340 340 340 340 339 339 338 338 338 336 338 335 332 336 337 335 335 336 334 328 325 328 332 334 333 334 336 336 337 336 337 337 335 335 334 333 332 333 335 334 332 331 330 327 324 328 332 332 331 330 330 329 328 327 327
340 340 338 337 337 336 336 336 335 335 335 334 333 334 335 337 338 339 338 337 337 337 336 336 338 340 340 340 340 341 341 340 341 341 341 340 339 339 339 339 340 338 337 338 337 336 335 336 336 334 332 332 331 331 333 334 334 333 333 334 335 336 335 335 335 334 333 333 336 335 332 331 332 330 327 326 330 332 331 331 330 330 329 328 327
338 336 337 337 336 336 335 335 336 336 335 335 335 334 336 338 339 338 337 337 337 337 338 338 339 341 340 340 341 342 342 342 342 342 342 341 340 339 339 339 339 339 341 339 338 337 336 335 335 335 334 333 332 332 333 334 335 333 333 334 333 335 335 335 334 334 334 334 335 336 334 332 332 331 330 327 327 332 333 331 331 330 329 328 328
335 334 335 336 336 336 335 336 336 336 336 336 334 334 336 338 338 338 337 337 337 337 337 338 339 340 340 341 342 342 342 341 342 342 342 341 340 340 340 340 339 339 340 340 339 338 337 337 336 335 334 333 334 334 334 334 334 335 334 332 332 334 334 335 335 334 333 333 333 334 333 330 330 331 332 329 326 329 333 333 331 330 329 328 328
334 334 334 336 336 336 335 335 336 336 336 336 335 335 337 338 338 338 338 338 337 337 338 339 340 341 341 342 342 342 342 342 341 341 341 341 341 341 341 341 340 340 340 340 339 339 339 339 338 337 335 334 334 334 335 334 335 335 335 334 333 333 334 334 334 334 334 333 333 333 333 331 331 332 333 332 329 327 330 333 333 331 330 329 329
334 334 335 336 336 335 335 336 336 336 337 336 336 338 339 338 339 339 339 339 339 340 340 342 342 342 343 342 342 341 342 342 342 341 340 341 341 341 341 341 341 341 341 340 340 340 340 339 339 338 337 337 336 335 335 335 335 334 334 334 334 335 335 335 334 335 334 334 334 334 335 334 333 334 333 332 332 328 327 331 333 332 331 330 329
335 336 336 336 337 336 337 337 337 337 337 337 338 339 340 339 340 340 341 341 342 342 342 343 342 343 342 341 342 341 341 341 341 340 340 340 340 340 341 341 341 341 340 340 340 340 340 339 340 339 339 339 338 338 337 336 336 335 334 333 334 335 335 336 335 335 334 334 334 333 335 335 335 335 335 333 332 331 328 328 332 333 332 331 330
336 336 337 338 338 338 338 338 338 338 338 338 340 341 341 341 341 341 341 342 342 342 342 343 342 342 341 340 340 340 340 340 339 339 340 341 341 341 341 341 340 340 340 341 340 340 339 339 339 339 340 340 339 340 339 339 338 337 336 335 334 334 334 335 335 334 335 335 334 334 335 336 336 336 336 335 333 332 330 327 328 332 333 332 330
337 337 339 339 340 340 339 339 339 340 340 340 342 342 342 341 340 341 342 342 343 343 342 342 341 340 340 339 339 339 339 339 339 339 340 341 341 341 340 340 341 340 340 340 340 340 340 339 339 339 338 338 338 338 339 339 339 338 337 336 336 336 336 335 335 335 335 334 335 334 334 334 336 336 336 336 335 333 332 329 327 329 332 333 331
338 339 340 341 342 342 342 342 342 343 342 340 341 343 342 340 340 341 342 343 343 342 341 341 340 340 340 339 339 339 339 339 339 340 340 340 340 341 341 340 340 340 340 340 340 340 339 340 340 339 339 337 337 337 338 338 338 338 337 337 337 337 337 337 336 336 335 334 334 334 334 334 335 336 336 336 336 334 333 332 329 328 330 332 332
340 341 343 344 343 343 343 341 341 342 342 340 341 342 341 340 340 342 342 342 342 341 341 341 341 340 340 340 339 339 339 339 339 340 341 341 341 341 341 340 340 340 340 340 340 340 340 340 340 339 339 338 338 337 337 338 338 338 337 337 337 337 337 337 337 336 336 335 335 334 335 335 335 335 335 335 336 336 335 334 332 329 328 330 332
340 341 343 341 341 341 341 339 339 341 339 339 340 341 342 341 341 342 343 342 342 341 341 341 340 339 339 339 339 339 339 339 339 339 341 341 340 340 341 341 341 340 341 341 340 340 341 341 340 340 340 340 339 339 338 339 338 338 338 338 338 338 338 337 338 337 337 337 336 336 336 335 336 336 336 336 336 336 336 335 334 332 329 328 330
338 339 340 339 339 339 339 339 339 337 335 336 339 340 341 342 342 342 341 341 341 341 340 340 340 339 339 339 339 338 339 339 339 339 341 341 340 340 340 341 341 341 342 342 341 341 341 341 341 340 340 339 338 338 339 339 338 338 338 339 339 339 339 339 338 338 337 337 337 338 337 336 337 337 337 337 336 336 336 335 335 334 332 329 328
339 339 337 338 339 338 337 338 338 336 335 336 338 339 340 340 341 341 340 340 340 341 340 340 339 339 339 338 338 338 338 338 339 339 341 340 339 340 340 339 339 339 340 341 340 340 340 340 341 340 339 338 337 337 338 338 338 338 338 338 338 338 338 339 339 338 338 338 338 338 338 338 337 337 338 337 337 337 337 336 335 335 334 332 329
337 337 336 337 337 337 337 337 337 337 336 336 337 340 340 340 340 340 340 340 339 339 339 338 338 338 338 337 338 338 337 338 338 338 338 338 338 338 338 338 337 337 338 338 338 339 339 339 339 339 339 337 337 337 337 337 338 338 338 339 339 339 339 338 338 338 338 338 338 339 338 338 338 338 338 338 338 338 337 336 335 336 335 334 331
336 336 335 334 335 336 337 337 337 337 336 336 337 340 341 340 340 339 339 338 338 338 338 337 337 337 337 337 337 337 337 337 337 337 337 337 337 337 336 336 337 337 337 337 337 337 337 337 337 337 337 337 337 337 337 337 337 338 339 339 340 339 339 339 339 339 338 338 337 338 338 337 337 337 337 337 337 338 338 337 336 336 335 335 334
335 335 333 332 334 335 336 337 337 337 336 335 336 339 341 340 339 338 338 338 337 337 337 337 337 336 336 336 336 336 336 336 336 336 336 336 336 336 336 336 337 337 337 337 336 336 336 336 335 335 335 336 336 337 338 338 337 337 338 338 338 337 338 338 339 339 339 338 337 337 337 336 336 335 335 335 336 337 337 337 337 336 335 335 334
334 334 333 333 335 335 335 337 337 336 336 334 335 339 340 339 338 338 337 337 337 337 336 336 335 335 335 334 335 335 335 335 334 335 335 335 334 335 335 335 335 335 335 335 334 334 334 334 335 335 335 335 335 336 337 337 336 335 336 335 334 334 333 335 339 340 340 339 338 336 336 336 336 335 334 333 334 334 334 336 337 336 335 335 335
334 334 334 335 335 335 335 336 336 335 336 335 336 339 339 338 338 337 337 336 336 336 335 334 334 334 333 332 333 333 333 333 332 332 332 332 332 332 332 332 332 331 332 332 331 332 331 332 332 333 334 334 334 334 335 335 335 334 334 334 333 332 331 332 336 338 337 336 336 336 337 337 336 335 334 333 333 334 334 334 335 335 336 336 336
335 333 334 335 335 335 335 334 335 336 336 337 337 338 338 337 337 336 336 335 335 334 334 333 333 333 332 330 330 330 330 330 329 329 329 329 329 330 330 330 329 329 329 329 329 329 329 329 329 330 332 332 332 333 333 334 334 333 333 333 332 332 331 331 332 334 333 332 334 335 336 335 335 335 334 334 334 334 333 334 334 334 335 336 336
333 333 334 335 333 334 334 333 335 337 337 337 337 337 337 336 336 336 336 335 335 334 333 333 332 331 330 328 327 327 326 326 325 325 325 325 326 326 327 327 327 327 327 327 327 327 327 328 327 328 329 330 330 330 331 332 332 332 332 332 333 332 332 332 333 332 330 330 331 331 332 333 334 334 334 334 333 333 332 333 333 333 334 335 335
332 332 333 333 333 333 334 334 335 335 335 335 336 335 335 335 335 335 336 336 334 333 332 331 330 329 328 326 324 323 323 322 322 322 322 322 322 323 324 324 325 325 324 325 325 325 325 325 325 326 326 327 327 328 329 330 330 331 331 332 333 332 332 332 332 331 329 329 330 330 330 330 331 332 332 332 332 331 332 332 333 333 333 334 335
330 331 331 332 333 333 333 333 333 332 333 332 333 334 334 333 334 334 334 334 333 331 329 328 328 327 326 325 323 322 321 321 320 320 320 320 321 321 321 322 322 322 322 322 323 322 322 323 322 323 323 324 324 325 326 328 328 329 330 330 331 331 331 331 331 330 330 330 329 329 329 328 329 330 330 331 331 331 332 332 333 333 333 334 335
328 329 330 331 332 332 332 331 331 330 330 330 331 331 331 331 331 331 331 332 331 329 327 326 325 325 325 323 322 321 320 319 319 319 319 319 319 319 319 319 319 319 319 320 320 320 320 320 320 321 322 322 322 323 324 325 325 326 326 327 327 328 329 329 330 329 329 329 328 328 328 328 329 329 329 329 330 331 331 331 332 333 333 334 334
327 327 328 329 330 330 330 329 329 328 328 328 328 328 329 329 329 330 329 329 328 326 326 325 325 324 324 322 320 320 319 318 317 317 317 317 317 317 317 317 317 317 317 317 318 318 318 318 318 319 319 319 320 320 320 321 322 323 323 323 324 325 326 328 328 328 329 328 328 328 328 328 328 328 329 328 329 329 329 331 332 331 332 332 333
325 326 327 328 328 328 328 327 327 326 325 326 326 326 326 327 327 328 327 327 325 325 324 324 324 323 323 321 320 319 318 317 316 316 316 316 315 315 316 316 315 316 316 316 316 316 316 317 317 317 317 317 317 317 318 318 319 319 320 320 321 322 323 325 326 326 326 327 327 327 328 328 328 328 328 328 328 329 329 330 330 331 331 332 332
324 325 326 326 327 326 326 325 324 324 324 324 324 324 324 324 325 325 325 325 324 324 323 323 323 322 321 320 319 318 316 315 315 315 315 315 315 314 314 314 314 314 315 315 315 315 315 315 315 315 315 315 314 314 316 316 316 317 318 318 319 320 321 322 323 323 323 324 324 325 326 326 326 327 327 327 327 328 328 328 328 330 331 332 332
Wind_Speed
18 18 19 18 17 15 14 13 12 13 14 15 16 16 15 15 14 13 13 13 13 13 14 14 14 13 12 12 12 11 11 11 11 11 11 11 10 11 12 11 12 14 15 14 15 16 14 14 13 12 12 11 11 10 10 11 12 13 11 12 13 13 13 13 13 13 13 14 15 15 15 15 14 14 12 13 12 11 11 10 10 11 13 13 13
19 18 18 18 17 16 14 13 13 15 14 15 16 16 16 16 15 14 14 13 14 14 14 14 13 12 12 11 11 11 11 11 12 12 11 11 10 11 12 12 12 13 15 15 16 15 14 13 13 12 13 13 14 13 11 9 10 12 11 12 11 12 13 13 13 12 13 14 15 15 15 15 14 14 13 12 11 11 11 13 14 12 13 12 13
21 18 18 19 18 16 15 14 15 16 15 16 16 16 16 16 15 14 14 14 15 15 15 14 12 11 11 11 11 11 11 12 12 11 11 11 11 12 12 12 12 13 14 15 15 14 13 13 13 13 13 14 15 16 14 11 10 11 11 11 10 12 14 12 12 12 13 15 16 15 15 14 13 14 13 12 10 10 9 11 14 13 12 11 12
21 19 19 19 18 17 16 15 16 16 17 17 16 16 15 15 15 14 14 15 15 15 15 14 12 11 11 11 11 12 12 12 12 11 11 11 12 12 12 12 13 13 13 14 14 13 13 13 13 13 13 13 14 15 15 13 12 12 11 11 9 12 15 14 14 13 11 12 15 15 13 12 13 14 13 12 11 11 11 12 13 12 11 10 9
21 19 19 19 18 17 17 17 17 17 17 17 16 16 16 15 15 15 15 17 16 16 14 12 12 11 11 11 11 12 12 12 12 12 12 12 12 12 12 12 13 13 13 13 13 13 12 12 12 12 12 12 12 13 13 13 12 11 11 10 10 14 16 16 15 15 12 9 11 10 9 11 12 12 11 12 12 12 11 11 11 10 11 12 10
20 19 19 19 18 18 18 19 19 18 18 18 18 17 17 17 16 17 17 18 16 15 13 12 12 11 12 11 11 12 12 12 12 12 12 13 13 13 13 12 12 13 13 12 12 12 11 11 11 11 11 10 10 10 11 11 11 11 10 12 15 18 17 15 14 13 12 10 7 6 8 10 10 10 10 10 11 11 11 11 10 9 10 10 11
20 20 19 18 18 19 20 20 20 19 19 19 19 19 18 18 17 17 16 16 14 13 12 12 12 12 12 12 12 12 12 13 13 13 13 14 13 13 12 12 12 12 12 12 11 11 11 10 10 9 9 9 9 9 9 9 11 10 10 14 18 17 15 14 13 11 10 7 4 6 8 9 10 10 9 10 10 11 11 11 11 9 9 9 9
20 19 18 18 18 20 21 20 20 20 20 20 19 18 17 17 17 16 15 14 13 13 12 12 12 12 12 12 12 12 13 13 13 13 13 14 13 13 12 11 11 11 11 11 10 10 10 10 9 8 8 9 9 9 8 8 9 10 10 13 15 14 13 13 12 11 11 8 5 7 8 9 9 9 9 10 9 8 8 9 11 10 8 8 7
19 19 18 17 18 20 21 20 20 20 21 20 18 17 16 16 15 15 14 14 13 13 13 13 12 13 12 12 13 13 13 13 13 12 11 11 11 11 11 10 9 9 10 9 9 9 9 9 8 8 8 9 9 9 8 7 7 8 9 10 11 11 12 12 12 11 10 7 6 7 7 9 9 9 9 8 6 6 8 8 9 8 7 6 5
19 18 18 17 19 21 20 20 20 21 21 20 18 17 16 15 15 14 14 14 13 13 13 13 13 13 13 13 13 13 12 12 11 10 9 8 8 8 8 8 8 8 8 8 8 8 7 8 8 7 8 9 9 8 8 7 7 7 8 7 9 10 11 10 10 10 7 5 6 7 8 9 9 8 8 7 6 5 6 5 3 4 5 6 6
19 17 18 18 19 20 20 20 20 19 19 19 18 17 16 15 14 14 14 14 14 13 14 13 13 13 13 12 12 12 11 11 10 9 8 8 8 7 6 5 6 6 6 6 6 6 7 7 6 6 7 8 9 8 8 8 8 8 7 8 9 10 9 7 7 6 4 6 7 7 7 9 9 7 7 7 5 5 4 3 3 3 4 5 6
18 18 19 19 19 20 20 20 20 18 18 19 18 17 16 15 14 14 14 14 14 14 14 13 13 13 12 12 11 11 10 10 9 9 8 8 8 7 6 4 3 4 4 5 4 4 6 6 5 5 6 7 8 8 8 9 9 8 8 8 10 10 8 6 6 3 4 7 5 5 6 8 7 4 6 6 5 5 4 3 4 3 4 4 5
19 19 20 19 18 19 20 19 19 18 18 18 17 16 15 14 13 13 14 14 14 14 13 13 13 13 12 12 11 10 9 9 8 8 8 7 7 7 6 4 3 3 3 3 3 3 5 4 4 5 6 7 8 8 8 8 9 8 8 10 11 12 11 11 8 3 4 5 4 4 6 6 4 2 4 5 4 4 4 4 3 3 3 4 5
20 20 20 19 18 18 19 20 19 18 18 18 17 16 14 14 13 13 14 14 14 13 13 13 12 12 11 10 10 9 8 8 7 7 7 6 7 8 8 6 4 2 3 3 2 3 4 4 3 5 5 6 7 7 7 7 8 8 9 10 11 12 11 9 7 4 4 4 3 4 6 6 1 3 3 4 3 3 4 4 3 3 4 5 6
20 21 21 20 19 18 18 20 19 19 18 18 18 16 14 14 13 13 13 13 13 13 13 12 12 11 10 9 8 8 8 7 6 6 6 7 8 8 9 8 6 4 3 3 3 3 3 4 5 6 6 6 7 7 7 6 6 7 8 7 8 7 5 3 3 3 3 3 3 3 6 3 4 3 4 2 3 4 3 3 3 4 5 6 5
21 22 22 21 20 18 17 18 19 20 19 19 18 16 14 14 14 13 13 13 13 13 12 12 11 10 9 8 8 8 7 6 6 6 7 8 9 8 7 8 7 6 5 4 3 3 4 5 6 6 5 5 6 6 6 5 5 5 7 7 6 5 5 5 3 1 2 2 2 2 5 0 6 1 3 1 2 3 2 3 4 5 5 5 5
20 21 22 22 21 19 18 17 18 19 18 18 16 15 14 13 13 13 13 13 12 12 12 11 10 9 8 8 7 8 7 6 6 7 8 8 8 6 6 8 8 6 5 5 4 4 5 6 7 6 5 4 5 5 4 4 4 4 5 6 6 6 6 6 3 1 3 2 2 3 5 0 6 1 3 1 1 1 2 2 3 5 5 4 4
19 20 22 22 21 20 19 18 18 17 16 16 14 14 13 13 13 13 13 13 12 12 11 10 9 8 8 7 7 7 7 6 6 6 8 8 7 6 6 6 7 7 5 5 5 6 6 7 7 5 4 4 4 4 3 3 4 4 3 4 7 8 7 6 2 1 3 1 1 3 2 4 8 0 3 1 1 1 1 3 3 3 4 4 4
18 19 20 21 21 20 19 18 18 17 16 15 13 12 12 12 12 12 13 13 12 11 10 9 8 8 7 8 7 6 7 6 5 5 6 7 7 6 5 6 6 6 5 5 6 7 7 7 7 5 3 3 4 4 3 2 3 3 3 3 6 7 5 5 3 1 1 0 1 3 1 8 6 2 2 2 1 1 2 3 3 3 4 4 4
18 18 18 20 20 18 18 18 18 18 17 16 14 12 12 12 12 12 12 12 12 10 8 7 7 7 7 8 6 5 5 5 5 5 3 5 6 5 5 6 6 7 6 5 6 7 7 7 6 5 3 2 3 3 3 2 2 3 2 3 4 3 4 5 4 3 0 1 2 2 4 7 3 2 2 3 3 3 3 3 3 3 4 4 5
17 17 18 18 18 17 17 17 17 17 17 16 14 12 12 12 11 11 12 12 10 8 7 6 6 5 5 7 6 4 3 2 4 4 2 1 2 3 4 6 6 7 8 7 5 4 6 6 5 4 3 1 2 1 1 1 1 1 1 2 2 1 5 5 4 3 2 1 2 3 5 5 2 2 4 4 5 4 3 3 3 3 4 4 5
16 16 17 17 17 16 16 16 17 17 16 15 13 12 13 13 11 11 11 10 9 8 7 6 6 4 4 5 4 4 4 3 3 2 3 2 1 2 3 4 5 6 7 8 7 4 3 4 4 4 3 2 0 2 2 1 1 1 1 1 2 4 5 4 4 4 4 2 2 4 6 5 2 1 3 5 6 4 4 5 4 4 5 4 6
16 16 16 15 15 14 13 14 15 14 14 13 12 13 13 13 13 11 10 9 8 7 7 6 5 5 4 5 5 4 4 5 5 4 5 3 2 2 2 2 4 4 4 6 7 6 3 1 3 4 5 4 4 6 6 4 3 3 2 3 4 6 6 4 5 5 5 3 3 6 7 6 3 3 3 5 7 6 5 6 5 5 5 5 6
16 16 15 14 13 13 13 12 13 13 12 12 12 13 13 13 13 12 10 10 8 7 6 5 5 5 5 5 5 4 4 4 4 4 5 4 2 3 3 2 2 3 3 2 4 5 4 2 1 2 5 6 7 8 7 6 6 4 3 5 7 7 6 6 7 7 6 4 5 8 7 6 5 4 4 4 7 7 6 7 7 6 6 7 7
16 15 15 13 13 13 13 13 13 12 12 12 13 13 12 12 13 12 11 9 8 7 6 6 6 5 5 5 4 3 2 2 1 2 4 4 2 1 2 3 2 2 3 1 2 2 2 2 2 2 5 8 8 7 6 6 5 5 6 6 7 6 7 8 8 7 7 6 7 10 7 6 6 6 6 5 7 8 7 8 8 8 8 9 9
16 15 14 13 13 14 14 14 13 12 12 12 12 12 12 12 13 12 11 9 8 7 7 7 7 5 4 3 3 2 1 1 1 0 1 3 3 3 2 2 1 1 2 2 3 3 3 5 5 3 5 7 8 7 7 7 7 7 7 6 6 7 8 8 8 7 8 8 9 10 9 8 7 7 8 7 8 9 9 9 9 10 9 10 13
16 15 15 14 14 14 14 14 13 13 12 13 13 13 12 11 12 11 10 9 9 8 7 6 6 4 3 2 2 1 0 0 0 1 1 1 1 1 1 1 1 1 1 3 3 3 4 4 4 5 5 6 7 7 7 8 8 9 9 8 8 8 8 8 8 8 9 9 10 11 11 11 10 9 10 10 9 11 11 10 10 10 10 13 15
16 16 16 15 15 15 15 15 15 14 14 14 14 13 12 12 11 10 9 9 9 8 7 6 5 4 3 2 1 0 0 1 1 1 2 2 2 3 2 1 2 2 1 4 4 3 3 4 4 5 6 7 7 6 7 8 9 9 10 10 10 10 10 10 10 11 11 10 11 14 16 14 12 11 12 12 12 12 12 12 11 9 12 16 15
17 16 16 16 16 16 16 16 16 16 15 15 14 13 12 12 11 10 10 9 8 7 7 6 4 3 2 1 0 0 0 1 1 1 1 2 2 2 2 2 2 2 2 3 4 4 4 4 5 5 7 7 7 7 7 8 8 9 10 10 11 11 11 11 12 12 13 12 12 15 16 15 14 14 13 13 14 13 13 13 12 10 13 17 15
17 17 16 17 17 17 17 16 16 16 16 15 14 13 13 13 12 11 11 9 7 7 6 5 4 3 2 1 1 1 0 0 1 1 1 1 1 1 1 1 1 2 2 3 3 4 4 5 5 6 7 7 7 7 7 8 9 10 10 10 10 11 11 12 13 12 13 13 13 13 15 16 17 16 15 14 15 16 15 14 14 13 14 15 14
17 17 17 17 17 17 17 16 16 16 16 15 14 14 14 13 13 12 11 9 8 7 6 5 4 3 2 2 1 1 0 0 1 1 1 1 1 0 1 1 1 1 2 3 3 3 4 5 5 6 7 8 9 8 8 9 10 11 11 11 10 10 12 11 11 13 14 14 14 14 16 17 17 17 16 17 17 17 17 17 16 14 15 15 14
17 16 16 16 16 17 17 17 16 16 15 14 14 14 13 13 13 12 10 9 8 7 6 5 5 4 3 3 2 1 1 0 1 1 1 1 1 1 1 1 1 2 2 3 3 4 4 5 5 6 6 7 8 8 9 9 10 11 11 11 11 12 14 12 13 15 15 15 14 15 15 14 16 18 19 19 18 18 19 19 18 16 16 17 16
16 15 16 17 16 16 16 15 15 14 13 14 15 14 13 13 13 12 10 9 8 7 7 6 6 5 4 4 2 2 1 1 1 1 1 1 1 1 1 2 2 2 3 4 4 4 4 5 5 5 6 6 8 8 9 9 10 11 11 11 11 12 13 13 14 15 15 15 15 16 15 15 16 16 17 18 17 18 19 20 20 19 18 18 17
14 14 15 15 14 13 13 13 14 13 13 15 15 13 13 13 12 11 9 9 8 7 7 6 6 5 4 4 3 2 2 1 1 1 1 1 1 2 2 2 3 3 4 4 5 5 5 5 5 6 6 6 8 8 9 10 10 11 11 11 11 12 12 13 15 14 15 15 15 17 16 16 16 13 15 16 17 18 18 20 21 22 21 19 19
13 12 13 12 10 10 9 9 11 11 12 13 12 11 11 12 12 10 9 9 8 7 7 6 5 4 4 4 3 2 2 1 1 1 2 2 2 2 2 2 3 4 4 5 5 5 5 5 6 6 7 7 8 9 9 10 10 11 11 11 12 12 13 14 14 14 15 15 15 16 14 15 16 14 14 15 16 17 18 18 21 23 23 22 21
9 8 10 10 8 8 7 7 8 8 9 10 10 11 10 10 11 11 10 9 8 7 7 6 5 5 5 5 4 3 3 2 2 2 3 3 3 3 3 3 4 4 4 5 6 5 5 6 6 7 8 8 9 9 10 10 11 11 11 11 12 12 13 14 14 14 15 15 15 15 15 15 16 15 15 14 15 17 17 17 19 21 24 24 23
9 7 8 9 7 6 5 7 10 7 7 9 10 12 12 11 11 11 11 10 8 8 7 7 6 6 6 6 5 5 4 3 3 3 4 4 4 3 4 4 5 5 5 5 5 5 6 6 7 7 7 8 9 10 10 10 11 12 12 12 12 12 13 14 14 15 15 15 15 15 15 15 15 15 15 15 15 16 17 16 17 19 22 24 25
10 7 7 9 8 7 5 6 10 10 7 9 10 11 12 12 11 11 11 10 9 8 8 7 7 7 6 6 6 5 5 4 4 4 4 4 4 4 4 5 6 6 6 5 5 5 5 6 7 8 8 9 11 11 11 11 12 12 13 13 13 13 14 14 14 14 15 15 15 14 14 14 14 14 14 14 15 15 16 16 17 18 20 23 26
7 6 7 7 7 7 6 4 7 10 8 9 9 9 9 10 11 11 11 10 10 9 9 8 8 8 7 7 7 6 6 5 5 5 5 5 5 5 5 6 6 6 7 6 5 5 5 6 7 8 9 11 11 12 11 11 12 13 14 15 15 15 15 14 14 14 14 14 14 14 14 14 13 13 14 14 14 15 16 17 18 18 19 22 25
7 7 7 5 6 7 6 4 4 7 8 8 8 8 8 9 10 10 11 10 10 10 10 10 9 9 9 8 8 8 7 7 7 7 7 7 6 6 7 7 7 7 8 7 7 7 7 8 8 9 10 11 11 11 11 11 13 14 14 15 15 15 15 14 14 13 13 13 13 14 14 13 12 12 13 13 14 14 15 16 17 19 19 19 22
9 9 8 6 6 7 7 6 5 4 5 5 3 6 7 7 8 9 10 9 8 10 10 10 9 9 9 9 9 9 8 8 8 8 9 9 9 9 9 9 9 9 9 9 9 10 9 10 10 10 10 11 11 10 9 11 12 12 12 13 14 15 14 14 13 13 12 12 13 13 13 13 12 12 13 13 14 15 15 15 16 20 20 20 21
9 9 10 7 7 8 8 8 7 4 2 2 4 7 7 6 8 9 9 9 9 9 9 9 8 8 8 8 9 9 9 10 9 9 10 10 11 11 11 11 11 11 11 11 11 11 11 12 12 13 12 12 11 10 9 10 11 11 12 12 12 11 11 10 11 11 10 11 12 13 13 13 13 14 14 14 15 15 16 16 16 18 19 20 20
12 11 10 7 7 9 9 8 7 5 3 5 8 10 10 9 10 10 9 9 9 9 9 8 7 8 9 9 9 8 8 9 10 9 10 10 11 11 11 11 11 12 11 11 12 12 12 13 14 14 15 14 12 11 11 10 12 14 12 9 8 8 8 7 6 8 11 13 13 13 13 13 14 15 15 15 15 15 15 15 16 17 17 18 18
13 13 11 8 7 9 10 6 4 5 5 7 10 11 12 12 12 11 10 10 9 9 9 9 9 9 9 10 10 9 9 10 10 10 10 10 11 10 10 10 10 11 10 10 11 12 12 13 14 14 14 15 14 14 14 13 13 13 10 7 8 7 6 6 7 9 13 13 12 12 13 14 15 15 15 16 16 16 16 15 16 17 18 17 17
12 12 11 10 8 8 9 7 5 6 7 9 9 9 10 11 10 10 9 9 9 9 8 8 9 9 9 11 11 10 11 11 12 12 11 11 11 10 10 9 9 10 10 10 11 12 12 12 13 13 14 14 15 16 16 15 15 13 11 8 7 5 5 9 12 12 13 13 12 13 14 14 14 14 15 16 17 17 17 16 17 17 18 18 18
14 13 10 10 9 8 8 9 8 8 9 9 8 7 8 8 7 7 7 8 9 9 9 9 8 8 9 9 11 12 11 11 11 11 10 10 10 10 10 9 9 10 10 10 10 11 11 11 12 12 13 13 14 15 14 15 15 14 13 10 8 8 9 12 11 8 11 15 15 15 15 15 15 15 16 16 17 18 18 18 18 18 18 19 20
15 12 10 9 9 9 9 10 10 9 9 8 8 7 8 7 6 6 6 8 9 10 9 9 8 8 7 7 9 11 11 11 10 10 10 10 9 9 10 9 8 9 8 8 9 10 10 11 11 11 11 12 12 13 13 14 15 14 14 15 15 15 14 13 10 8 10 13 14 16 16 16 15 15 16 17 17 18 18 19 19 19 18 19 21
14 11 10 10 10 10 11 11 12 10 8 8 8 8 7 7 6 6 7 8 9 9 8 7 7 7 7 8 9 10 10 11 10 9 9 9 8 8 9 8 8 8 8 8 8 9 10 10 10 10 11 12 12 11 12 13 13 14 16 17 17 18 18 17 15 13 10 9 12 14 15 16 16 16 17 17 18 18 19 19 20 19 19 20 21
13 10 10 10 11 12 11 12 12 10 9 9 9 9 8 7 7 6 6 7 7 7 6 6 6 6 8 10 9 9 9 10 10 9 8 8 8 8 8 9 9 8 8 8 9 9 9 10 10 10 11 12 11 11 12 12 12 13 14 15 16 16 18 18 18 17 13 10 10 10 13 16 17 18 18 17 18 19 19 19 19 20 20 21 22
14 11 11 11 11 12 11 11 11 9 10 10 10 9 9 8 7 7 6 6 6 6 6 6 6 7 8 9 9 9 9 9 9 8 9 9 9 9 9 9 9 9 9 9 9 9 9 9 10 10 10 10 10 11 11 11 12 13 13 14 14 14 15 15 16 18 16 14 11 11 15 16 15 17 18 18 19 19 19 20 21 21 22 22 22
15 12 12 12 12 12 11 11 11 10 10 10 9 9 9 8 8 7 6 6 6 6 5 5 5 7 8 8 8 8 8 8 8 8 9 9 9 10 9 9 10 10 10 9 9 9 9 9 9 9 10 10 10 10 10 11 12 12 12 13 13 13 13 13 15 17 15 13 12 11 15 18 18 18 20 20 22 22 21 22 22 22 22 22 22
Wind_Direction
128 130 137 140 129 123 118 119 126 124 125 119 115 116 120 122 115 112 114 114 110 109 108 108 106 104 104 105 105 105 106 102 98 93 91 89 88 89 91 92 95 101 103 103 101 98 94 93 92 88 85 80 76 80 89 91 89 82 74 73 76 82 84 83 83 84 84 86 86 83 81 78 75 71 74 83 84 80 76 84 76 63 59 55 55
129 131 136 137 129 122 118 122 129 128 126 121 120 118 120 123 118 116 116 114 113 115 114 112 108 107 106 106 106 105 103 99 95 92 91 91 90 90 92 93 96 101 103 105 102 99 97 94 90 85 81 75 72 71 76 90 103 97 86 79 77 88 89 86 90 92 86 87 90 89 85 81 77 71 71 82 85 85 87 88 78 67 62 55 55
129 131 134 137 128 120 118 124 131 130 126 121 123 122 123 123 122 122 120 119 118 119 118 116 112 110 109 106 104 102 100 97 95 91 91 91 91 91 92 94 96 99 102 105 104 100 96 91 86 80 77 75 73 68 66 75 94 96 91 86 82 100 103 98 102 101 89 83 84 82 82 81 76 70 70 74 78 83 83 76 66 63 63 62 64
129 132 134 134 126 120 119 126 134 132 128 123 122 123 125 124 126 127 126 124 121 121 121 121 117 114 110 106 103 101 100 98 95 92 93 93 93 93 94 98 98 99 103 105 104 100 94 89 83 79 76 75 74 69 67 72 86 88 90 90 86 108 112 105 104 104 99 89 80 75 76 80 75 72 71 68 70 71 70 69 63 59 54 50 63
131 133 133 130 125 122 119 127 133 133 130 125 123 121 121 120 121 122 123 122 122 123 121 120 118 116 109 104 102 101 100 97 95 92 93 93 94 94 95 98 98 100 103 102 101 99 94 89 84 82 81 76 71 67 65 70 84 93 95 93 94 109 110 105 102 97 97 92 85 85 86 86 81 76 73 69 69 67 68 69 59 53 45 35 35
132 133 132 128 126 124 122 126 128 130 129 123 120 117 116 114 113 115 117 118 120 121 120 119 116 113 108 105 103 101 100 96 94 93 91 91 93 96 98 98 97 99 101 100 98 98 94 88 85 84 83 77 67 61 61 66 78 94 100 100 103 108 105 102 100 95 96 95 90 97 94 89 88 79 73 71 70 63 57 52 49 52 46 36 26
133 134 131 126 128 128 125 127 127 128 126 122 119 117 117 115 116 116 116 117 119 121 120 119 115 112 108 105 105 101 99 97 94 92 91 91 93 97 100 101 99 99 101 100 97 98 94 90 87 85 80 72 65 59 58 63 72 86 100 110 113 108 101 96 89 85 81 74 76 95 93 91 90 82 75 72 67 57 50 43 45 53 49 46 36
136 135 130 127 130 131 127 129 129 128 125 122 119 118 119 119 121 121 121 122 123 124 121 119 116 113 110 107 105 101 99 98 95 93 93 93 94 96 97 100 103 104 104 102 100 100 97 95 91 86 75 65 61 57 56 62 70 80 96 119 124 112 102 98 87 75 62 58 82 89 86 94 94 88 84 75 69 60 56 44 39 46 52 56 51
137 132 128 128 131 132 129 130 131 129 127 123 120 119 121 122 123 124 125 125 125 123 121 119 116 114 112 108 104 101 99 96 96 95 94 95 97 99 99 100 103 104 105 105 105 102 101 101 94 84 72 61 58 56 54 61 73 79 89 117 130 114 101 96 83 70 63 69 84 75 79 94 96 93 91 79 82 83 78 71 52 48 47 54 51
132 128 127 127 131 133 129 131 133 131 129 126 123 122 123 124 124 126 127 126 125 123 121 119 117 115 112 108 105 102 99 96 94 90 89 90 94 101 106 109 108 107 105 104 106 104 102 104 97 81 68 57 56 57 56 67 80 82 83 100 124 119 104 93 71 57 60 72 75 79 84 90 94 96 95 82 89 105 98 98 75 51 39 40 37
129 127 126 128 133 133 129 132 135 131 129 128 126 125 126 126 127 128 128 127 125 123 121 120 117 115 112 108 105 102 98 95 89 84 85 85 88 91 101 114 115 116 116 109 106 108 109 108 98 80 69 59 55 58 63 74 83 85 84 93 116 118 104 88 57 39 57 83 84 93 87 89 96 97 100 89 82 92 99 90 51 49 37 33 28
129 125 124 127 131 131 129 131 134 131 128 130 128 127 128 128 130 130 130 127 126 125 123 122 118 113 110 104 101 99 95 92 86 82 81 79 79 78 83 97 113 124 130 123 120 121 124 118 101 86 77 62 56 62 74 78 81 88 87 100 117 111 93 74 60 42 67 82 87 96 88 92 96 87 92 84 70 73 75 75 54 48 41 34 23
126 124 124 126 128 130 129 129 131 130 130 130 128 129 130 131 133 132 131 129 127 126 123 121 117 112 108 102 98 94 90 87 84 81 81 78 76 75 76 84 117 154 154 147 146 132 137 141 117 101 85 65 59 66 81 79 78 84 84 104 117 105 90 69 59 64 71 75 83 88 86 93 90 59 93 84 68 68 50 50 29 28 36 21 21
127 127 127 127 128 130 128 128 130 132 133 131 132 132 132 133 134 133 131 130 128 126 125 121 117 114 109 103 95 87 82 81 85 88 87 82 79 73 67 71 90 131 154 159 161 144 156 173 148 117 96 70 62 69 84 82 76 75 79 102 117 109 98 73 55 68 77 77 78 83 98 110 59 350 77 90 53 49 42 39 13 17 17 3 22
131 131 131 130 129 129 129 129 132 136 138 137 137 134 134 135 134 134 131 130 129 128 126 123 120 116 109 101 90 83 79 80 89 95 94 86 78 68 58 57 69 93 125 154 177 189 183 184 164 131 108 79 65 70 82 87 80 71 70 89 112 111 101 70 35 73 84 77 71 83 108 118 305 349 78 76 28 43 38 14 5 9 5 6 22
133 134 132 133 131 130 129 130 136 140 143 141 139 136 135 134 133 134 132 130 129 129 128 126 123 115 109 101 93 87 82 85 97 101 101 91 78 69 56 47 54 80 108 134 164 187 186 176 160 133 112 88 72 71 78 92 92 78 67 70 98 105 90 69 21 53 77 79 83 79 117 242 315 65 120 14 28 49 28 9 6 358 360 7 10
134 135 134 136 134 133 133 134 138 139 143 144 141 139 139 137 134 133 131 131 130 130 129 127 123 116 110 103 99 93 88 90 104 110 102 96 90 82 64 46 45 64 93 117 146 163 167 164 153 132 109 88 73 70 74 94 104 102 82 69 94 108 100 80 34 34 52 75 92 65 122 277 326 75 130 45 58 22 13 3 349 347 358 3 357
135 136 137 138 137 137 138 137 135 133 136 139 141 141 144 143 137 134 134 133 132 131 129 127 121 117 112 106 100 92 87 84 97 109 105 102 97 91 79 58 48 57 80 105 131 147 156 158 148 133 109 81 70 68 65 94 114 122 108 86 101 107 100 82 61 78 66 53 90 91 138 307 313 261 130 167 236 310 339 322 326 344 352 349 339
135 137 138 139 139 140 141 139 137 136 133 131 136 142 146 146 140 138 138 136 134 132 127 124 118 116 110 100 91 84 78 74 87 91 104 110 95 90 91 82 65 59 71 101 128 141 153 162 152 138 120 79 66 63 63 89 116 134 137 107 104 102 81 41 345 287 113 77 73 125 280 313 300 193 164 243 248 267 272 298 318 337 330 327 324
134 136 137 139 139 141 143 143 141 139 133 128 130 140 148 144 139 137 138 137 132 128 124 122 119 112 103 92 82 88 78 65 87 76 74 108 104 109 97 89 79 66 67 92 126 144 156 165 162 152 134 92 72 60 61 76 112 140 151 123 108 81 12 342 316 302 136 80 95 157 313 324 286 165 188 246 262 270 267 280 304 313 306 313 320
135 134 135 136 137 141 141 139 138 135 128 126 128 140 151 145 141 139 135 133 127 126 126 125 120 101 87 90 86 112 126 88 100 87 78 103 116 124 97 84 75 67 65 70 99 143 165 172 175 169 161 129 64 45 50 54 105 143 140 134 140 347 330 311 286 294 290 325 133 190 306 331 305 171 183 228 264 278 258 258 274 283 293 298 300
137 134 133 135 135 136 134 133 133 129 124 124 129 140 148 146 150 150 141 137 135 136 136 133 132 117 93 105 121 147 154 143 134 140 152 161 183 128 95 85 73 66 63 63 72 92 157 191 200 201 194 198 306 228 228 249 264 257 208 186 208 256 280 275 276 288 275 278 161 215 292 327 321 255 194 217 253 263 239 251 258 265 280 273 278
137 133 132 135 133 129 130 133 130 127 126 127 135 142 145 149 156 158 155 157 153 148 148 145 147 146 133 139 159 161 143 138 150 169 172 164 124 92 82 83 72 58 56 63 59 58 71 141 214 232 225 228 251 232 225 210 230 272 247 250 257 258 264 255 266 272 267 269 205 240 283 307 304 286 234 212 237 247 239 253 255 253 263 259 271
139 134 133 131 129 130 132 132 133 136 136 136 143 145 147 152 156 161 163 164 161 158 158 152 147 148 150 159 161 156 149 139 143 149 160 168 98 82 86 66 57 47 24 48 44 32 43 42 3 268 237 233 247 243 237 210 211 250 238 248 257 256 263 260 264 266 271 267 223 243 276 294 296 284 262 230 233 243 244 255 259 257 261 258 255
136 134 132 130 131 135 136 135 140 144 143 143 146 147 152 154 156 162 162 159 161 161 161 154 152 158 163 167 158 149 149 133 130 118 148 183 215 161 116 58 31 40 356 275 225 316 342 260 294 312 246 238 248 251 259 245 230 244 238 246 257 261 268 267 270 271 278 277 241 246 270 285 285 279 271 252 236 243 251 258 264 266 266 263 257
136 134 132 134 137 140 142 143 146 148 149 146 147 150 155 159 156 156 155 154 158 159 159 157 161 169 168 164 148 122 85 105 136 46 148 198 223 210 164 89 27 234 316 281 218 251 260 229 228 249 252 253 261 257 258 262 261 263 260 260 262 265 269 269 273 275 278 282 267 259 268 275 274 272 268 256 236 236 246 253 259 264 266 263 263
141 137 137 139 142 146 146 148 150 151 151 147 150 154 153 155 153 149 150 150 154 156 154 157 166 165 160 157 137 94 18 306 303 329 341 266 267 272 231 123 273 238 250 286 256 243 255 248 246 251 255 256 258 255 255 260 261 267 272 271 269 265 264 267 271 273 271 272 272 269 270 272 271 268 263 258 244 231 234 243 251 261 268 263 265
142 140 141 144 147 150 150 152 153 152 153 151 154 155 150 149 148 146 146 146 149 153 153 156 163 155 157 168 143 92 267 294 293 307 311 306 317 331 334 334 305 304 306 290 289 281 280 285 283 277 271 264 257 254 255 257 254 258 264 265 267 266 266 268 270 273 271 265 264 268 272 272 269 269 264 259 254 238 228 237 247 259 270 266 267
143 145 145 149 151 154 155 155 154 153 154 156 156 152 150 150 148 146 144 145 145 146 150 150 153 152 165 194 255 253 155 324 298 299 292 297 311 318 323 319 308 310 308 303 306 310 302 289 283 282 276 271 268 262 257 258 257 254 254 256 259 261 265 271 271 270 269 265 260 265 270 271 269 270 268 261 257 249 232 231 241 250 263 269 275
147 149 150 152 155 158 157 156 155 155 156 157 156 151 154 152 146 144 141 144 143 140 144 145 149 154 168 184 210 249 118 359 300 308 298 282 289 291 312 299 296 307 300 304 308 300 294 288 286 287 285 285 288 283 275 272 272 267 262 261 259 259 259 263 269 269 271 269 262 262 263 264 268 268 267 264 259 254 243 231 234 243 251 264 277
151 154 154 154 158 160 156 156 157 157 158 157 154 153 151 147 144 141 140 143 145 144 145 146 149 154 172 164 144 169 141 47 305 320 320 303 298 326 347 317 317 319 308 308 306 296 290 288 289 293 294 297 300 296 288 284 283 282 280 278 279 280 271 264 272 275 275 272 268 267 262 262 268 268 267 268 263 255 247 236 231 237 242 248 255
155 157 155 155 158 160 157 158 161 161 159 155 152 151 146 147 149 142 142 147 147 148 146 149 153 155 159 144 135 143 117 60 360 356 347 331 347 348 341 347 338 325 317 313 308 301 294 291 290 292 291 292 295 291 287 287 286 287 287 287 288 287 281 278 277 274 275 276 275 273 268 267 268 266 267 266 264 258 250 242 234 233 238 240 241
156 156 153 155 156 157 157 158 162 159 155 157 154 148 148 151 150 142 145 148 145 147 147 151 151 146 138 125 124 113 93 66 33 3 343 340 339 340 345 341 330 328 317 312 309 300 296 297 296 293 292 295 294 289 287 286 286 288 288 289 288 285 285 287 283 280 283 284 282 279 278 278 272 268 270 262 259 260 254 248 240 233 233 236 239
150 154 152 151 151 151 154 157 161 158 158 162 153 147 154 151 144 141 145 144 140 141 141 140 133 129 123 110 103 97 88 67 36 342 343 344 333 335 344 341 326 325 316 312 312 303 302 304 304 302 300 302 296 292 291 288 288 289 289 291 291 290 289 288 286 286 287 284 283 283 282 283 280 279 277 264 259 261 256 252 245 238 233 231 234
139 147 148 141 143 146 149 157 161 159 159 160 150 150 158 149 142 142 141 138 135 132 126 121 115 114 111 99 89 84 72 57 21 340 341 332 337 338 337 342 330 324 317 313 312 310 310 308 309 310 305 304 299 296 293 290 290 289 290 291 288 289 287 285 285 285 286 284 283 282 278 277 276 276 272 265 267 265 256 253 248 243 238 232 231
127 138 145 138 138 144 144 156 160 160 161 159 156 156 153 142 138 136 133 129 125 123 115 109 102 94 92 86 78 72 60 41 13 347 338 331 337 335 333 339 329 323 318 314 313 311 313 313 314 313 308 307 303 299 295 293 293 289 288 287 284 284 282 281 282 281 284 284 282 281 279 278 275 275 274 269 272 270 261 256 250 246 243 238 232
145 144 150 142 136 143 153 167 158 157 169 162 157 154 147 141 134 128 126 121 115 111 103 96 89 80 78 76 72 67 55 40 23 2 345 341 344 337 335 335 328 323 317 314 314 314 317 319 317 315 310 305 301 298 297 298 296 292 287 284 282 281 279 280 280 280 281 280 279 279 278 278 276 275 275 272 271 270 267 262 255 248 245 243 238
156 139 137 143 145 149 168 179 149 142 166 169 161 155 147 139 128 120 118 112 105 100 94 90 85 77 74 71 68 64 55 43 29 19 2 350 350 349 340 333 329 321 314 313 312 314 321 318 314 311 303 297 296 296 298 300 299 296 291 288 285 281 279 279 279 278 278 278 279 280 279 278 276 274 272 272 271 268 264 264 263 254 245 245 242
146 125 122 146 153 139 151 178 138 134 163 177 167 151 136 127 119 115 111 105 99 94 88 85 82 76 72 71 69 64 55 45 33 27 17 2 358 358 349 342 337 326 320 322 320 321 324 319 312 306 300 296 296 297 299 299 299 298 294 291 286 281 278 276 276 276 276 278 279 280 280 278 276 275 273 272 271 269 265 264 263 252 243 246 246
132 135 128 142 140 127 148 171 135 138 171 193 174 139 120 114 114 112 106 100 95 90 83 79 79 73 70 69 67 63 55 48 39 33 27 17 10 4 358 352 344 337 335 338 341 339 334 329 322 313 309 307 304 304 306 305 302 298 292 288 284 279 275 269 267 269 272 276 278 277 277 278 278 276 275 273 271 271 269 265 259 250 242 242 246
143 145 131 129 133 145 164 152 124 139 192 213 167 111 106 109 112 109 99 93 90 87 81 73 69 66 65 63 58 54 47 43 37 31 28 21 15 11 9 6 2 358 356 356 355 352 345 340 332 321 317 314 314 317 319 311 305 303 301 297 292 283 274 263 258 264 270 272 276 276 274 278 280 278 279 278 273 270 266 261 255 253 248 243 247
141 130 126 139 151 154 147 126 115 127 189 165 106 87 87 98 101 95 87 81 79 81 82 76 70 69 67 59 52 46 40 36 30 26 23 18 13 9 10 10 9 8 6 4 3 1 358 356 350 339 331 323 317 320 325 317 311 314 313 306 302 296 287 267 249 254 269 272 275 276 274 277 279 280 283 281 275 270 267 263 257 256 253 246 246
127 123 127 143 150 135 118 111 115 122 120 106 102 91 83 86 88 87 86 82 77 78 84 87 86 80 71 61 54 48 43 38 32 28 26 21 16 10 9 9 9 9 7 3 0 1 1 360 357 348 340 332 323 324 330 326 321 319 313 304 309 312 303 287 247 247 267 273 272 273 274 277 279 285 289 286 280 274 270 265 261 259 256 250 244
113 118 118 116 119 111 108 116 113 106 97 92 97 96 89 85 83 84 88 90 93 93 91 91 88 80 70 60 53 49 49 45 39 38 35 30 26 18 10 7 8 8 6 1 356 358 358 355 352 347 342 336 328 327 329 327 325 324 317 308 310 303 297 321 324 296 287 283 275 273 274 275 279 286 289 286 283 280 275 268 262 260 258 253 246
103 108 108 107 107 100 106 113 93 80 80 80 86 93 89 87 91 95 100 109 111 105 99 96 87 76 69 63 55 53 54 52 46 42 39 34 30 23 15 7 3 2 359 354 351 350 349 347 346 342 338 333 324 320 319 321 325 322 315 312 310 303 308 328 325 309 304 302 292 285 280 277 279 283 284 283 283 281 279 275 268 263 258 251 246
110 109 112 118 116 107 105 102 86 71 67 65 66 74 75 81 99 108 116 124 111 93 86 85 79 71 72 68 58 54 51 49 45 37 33 29 24 19 14 5 357 356 350 344 344 343 342 343 343 340 335 332 326 319 314 319 323 319 317 318 311 300 303 314 315 307 308 306 299 296 294 290 285 282 281 281 282 283 282 280 277 272 263 252 247
114 116 125 130 122 116 109 96 85 71 63 59 56 60 63 65 70 71 81 99 98 87 78 74 70 67 73 72 59 52 47 44 40 33 28 24 16 11 8 0 353 353 349 346 350 350 348 347 347 345 341 339 335 324 318 324 326 322 327 331 323 312 307 306 304 304 308 304 301 301 297 295 291 288 287 285 283 283 283 282 280 276 268 257 252
124 131 133 128 119 120 114 94 84 79 71 68 66 65 67 65 65 67 70 77 86 88 81 75 73 71 78 81 67 54 49 45 39 33 27 24 20 16 14 11 6 2 1 2 2 358 356 355 354 353 349 347 345 335 326 329 330 326 329 332 328 321 315 308 303 302 302 300 301 301 299 300 299 296 292 289 288 285 281 280 278 276 271 265 260
128 128 125 122 115 117 112 93 86 86 81 78 76 73 76 76 75 82 86 85 89 92 89 85 84 82 84 83 73 58 52 46 42 38 33 32 31 28 26 22 16 9 7 9 6 4 5 4 3 0 356 353 351 347 338 334 333 331 331 330 327 324 321 317 315 318 318 311 306 306 308 307 303 298 295 293 292 289 285 282 278 275 271 268 264
123 122 120 118 114 113 107 95 91 90 83 79 76 73 73 76 76 82 90 96 101 100 96 91 88 91 86 79 70 60 54 48 44 41 39 39 36 33 29 22 18 13 12 13 11 11 11 11 12 8 5 1 355 352 346 342 340 338 338 334 330 330 329 325 326 331 331 324 316 315 316 313 308 307 307 303 299 296 292 287 282 277 272 270 265
120 123 122 118 114 111 104 97 93 88 82 78 76 73 71 72 75 80 87 95 106 106 100 92 92 99 91 79 71 63 58 54 49 44 41 39 34 30 26 23 22 18 15 17 15 14 12 15 18 13 11 10 4 359 355 353 350 346 345 340 334 334 332 327 329 331 329 323 320 318 316 316 315 314 312 310 307 301 293 288 284 279 273 270 267